TimeCDT,TemperatureF,Dew PointF,Humidity,Sea Level PressureIn,VisibilityMPH,Wind Direction,Wind SpeedMPH,Gust SpeedMPH,PrecipitationIn,Events,Conditions,WindDirDegrees,DateUTC
12:15 AM,59.0,48.2,67,30.19,10.0,South,4.6,-,N/A,,Clear,190,2013-05-14 05:15:00
12:35 AM,59.0,48.2,67,30.18,10.0,South,3.5,-,N/A,,Clear,190,2013-05-14 05:35:00
12:55 AM,59.0,48.2,67,30.18,10.0,South,3.5,-,N/A,,Clear,190,2013-05-14 05:55:00
1:15 AM,59.0,48.2,67,30.17,10.0,South,3.5,-,N/A,,Clear,190,2013-05-14 06:15:00
1:35 AM,59.0,48.2,67,30.17,10.0,SSW,3.5,-,N/A,,Clear,200,2013-05-14 06:35:00
1:55 AM,59.0,48.2,67,30.16,10.0,South,3.5,-,N/A,,Clear,190,2013-05-14 06:55:00
2:15 AM,57.2,48.2,72,30.16,10.0,South,3.5,-,N/A,,Clear,190,2013-05-14 07:15:00
2:35 AM,57.2,48.2,72,30.16,10.0,Calm,Calm,-,N/A,,Clear,0,2013-05-14 07:35:00
2:55 AM,57.2,48.2,72,30.16,10.0,Calm,Calm,-,N/A,,Clear,0,2013-05-14 07:55:00
3:15 AM,57.2,48.2,72,30.16,10.0,SSW,3.5,-,N/A,,Clear,200,2013-05-14 08:15:00
3:35 AM,57.2,48.2,72,30.16,10.0,SSW,4.6,-,N/A,,Clear,210,2013-05-14 08:35:00
3:55 AM,59.0,48.2,67,30.16,10.0,SSW,5.8,-,N/A,,Clear,210,2013-05-14 08:55:00
4:15 AM,59.0,48.2,67,30.15,10.0,SW,5.8,-,N/A,,Clear,220,2013-05-14 09:15:00
4:35 AM,59.0,48.2,67,30.15,10.0,SSW,4.6,-,N/A,,Clear,210,2013-05-14 09:35:00
4:55 AM,57.2,48.2,72,30.15,10.0,SSW,3.5,-,N/A,,Clear,200,2013-05-14 09:55:00
5:15 AM,57.2,48.2,72,30.16,10.0,SSW,3.5,-,N/A,,Clear,210,2013-05-14 10:15:00
5:35 AM,57.2,48.2,72,30.16,10.0,Calm,Calm,-,N/A,,Clear,0,2013-05-14 10:35:00
5:55 AM,57.2,48.2,72,30.16,8.0,SW,5.8,-,N/A,,Clear,220,2013-05-14 10:55:00
6:15 AM,57.2,48.2,72,30.17,9.0,SSW,5.8,-,N/A,,Clear,210,2013-05-14 11:15:00
6:35 AM,59.0,48.2,67,30.17,8.0,SW,5.8,-,N/A,,Clear,230,2013-05-14 11:35:00
6:55 AM,59.0,48.2,67,30.18,8.0,SSW,5.8,-,N/A,,Clear,210,2013-05-14 11:55:00
7:15 AM,59.0,48.2,67,30.18,8.0,SSW,9.2,-,N/A,,Clear,210,2013-05-14 12:15:00
7:35 AM,60.8,50.0,68,30.18,8.0,SW,8.1,-,N/A,,Clear,230,2013-05-14 12:35:00
7:55 AM,62.6,50.0,63,30.19,8.0,SW,8.1,-,N/A,,Clear,230,2013-05-14 12:55:00
8:15 AM,64.4,50.0,59,30.20,8.0,SW,10.4,-,N/A,,Clear,220,2013-05-14 13:15:00
8:35 AM,64.4,51.8,64,30.20,8.0,SW,9.2,-,N/A,,Clear,230,2013-05-14 13:35:00
8:55 AM,68.0,51.8,56,30.20,8.0,West,8.1,-,N/A,,Clear,260,2013-05-14 13:55:00
9:15 AM,68.0,51.8,56,30.20,8.0,WSW,10.4,-,N/A,,Clear,240,2013-05-14 14:15:00
9:35 AM,71.6,51.8,50,30.20,9.0,WSW,10.4,-,N/A,,Clear,240,2013-05-14 14:35:00
9:55 AM,71.6,51.8,50,30.20,7.0,WSW,10.4,-,N/A,,Clear,250,2013-05-14 14:55:00
10:15 AM,73.4,53.6,50,30.20,8.0,SW,9.2,-,N/A,,Clear,230,2013-05-14 15:15:00
10:35 AM,75.2,51.8,44,30.20,9.0,WSW,11.5,-,N/A,,Clear,250,2013-05-14 15:35:00
10:55 AM,75.2,53.6,47,30.20,8.0,West,11.5,16.1,N/A,,Clear,260,2013-05-14 15:55:00
11:15 AM,75.2,53.6,47,30.20,9.0,West,13.8,19.6,N/A,,Clear,260,2013-05-14 16:15:00
11:35 AM,77.0,53.6,44,30.19,8.0,SW,11.5,20.7,N/A,,Clear,230,2013-05-14 16:35:00
11:55 AM,77.0,53.6,44,30.19,7.0,West,9.2,19.6,N/A,,Clear,270,2013-05-14 16:55:00
12:15 PM,77.0,53.6,44,30.18,9.0,WSW,9.2,21.9,N/A,,Clear,240,2013-05-14 17:15:00
12:35 PM,78.8,53.6,42,30.17,8.0,SW,10.4,-,N/A,,Clear,230,2013-05-14 17:35:00
12:55 PM,80.6,55.4,42,30.17,8.0,SW,9.2,16.1,N/A,,Clear,230,2013-05-14 17:55:00
1:15 PM,80.6,55.4,42,30.16,9.0,SW,15.0,19.6,N/A,,Clear,220,2013-05-14 18:15:00
1:35 PM,80.6,55.4,42,30.15,8.0,WSW,8.1,18.4,N/A,,Clear,250,2013-05-14 18:35:00
1:55 PM,80.6,55.4,42,30.15,8.0,WSW,9.2,25.3,N/A,,Clear,240,2013-05-14 18:55:00
2:15 PM,80.6,55.4,42,30.14,8.0,SW,13.8,21.9,N/A,,Clear,220,2013-05-14 19:15:00
2:35 PM,80.6,53.6,39,30.14,8.0,WSW,12.7,20.7,N/A,,Clear,250,2013-05-14 19:35:00
2:55 PM,82.4,53.6,37,30.13,8.0,SW,13.8,20.7,N/A,,Clear,220,2013-05-14 19:55:00
3:15 PM,82.4,53.6,37,30.12,8.0,SW,12.7,21.9,N/A,,Clear,230,2013-05-14 20:15:00
3:35 PM,82.4,51.8,35,30.12,8.0,WSW,12.7,20.7,N/A,,Clear,240,2013-05-14 20:35:00
3:55 PM,82.4,51.8,35,30.11,8.0,WSW,13.8,23.0,N/A,,Clear,240,2013-05-14 20:55:00
4:15 PM,82.4,50.0,32,30.11,9.0,WSW,15.0,24.2,N/A,,Clear,240,2013-05-14 21:15:00
4:35 PM,82.4,50.0,32,30.10,8.0,WSW,9.2,16.1,N/A,,Clear,240,2013-05-14 21:35:00
4:55 PM,82.4,50.0,32,30.10,9.0,SW,16.1,23.0,N/A,,Clear,230,2013-05-14 21:55:00
5:15 PM,82.4,50.0,32,30.10,8.0,SW,12.7,21.9,N/A,,Clear,230,2013-05-14 22:15:00
5:35 PM,82.4,50.0,32,30.09,9.0,WSW,13.8,-,N/A,,Clear,240,2013-05-14 22:35:00
5:55 PM,82.4,50.0,32,30.09,9.0,WSW,11.5,18.4,N/A,,Clear,240,2013-05-14 22:55:00
6:15 PM,82.4,50.0,32,30.09,8.0,SW,10.4,16.1,N/A,,Clear,230,2013-05-14 23:15:00
6:35 PM,80.6,50.0,34,30.09,9.0,SW,10.4,16.1,N/A,,Clear,220,2013-05-14 23:35:00
6:55 PM,80.6,50.0,34,30.09,9.0,SW,9.2,-,N/A,,Clear,220,2013-05-14 23:55:00
7:15 PM,78.8,50.0,36,30.09,9.0,SSW,4.6,-,N/A,,Clear,210,2013-05-15 00:15:00
7:35 PM,77.0,50.0,39,30.09,9.0,SSW,4.6,-,N/A,,Clear,210,2013-05-15 00:35:00
7:55 PM,75.2,50.0,41,30.09,9.0,SSW,4.6,-,N/A,,Clear,210,2013-05-15 00:55:00
8:15 PM,73.4,51.8,47,30.09,10.0,Calm,Calm,-,N/A,,Clear,0,2013-05-15 01:15:00
8:35 PM,71.6,50.0,46,30.09,10.0,SSW,4.6,-,N/A,,Clear,200,2013-05-15 01:35:00
8:55 PM,71.6,50.0,46,30.10,10.0,SSW,3.5,-,N/A,,Clear,200,2013-05-15 01:55:00
9:15 PM,71.6,50.0,46,30.10,10.0,SSW,3.5,-,N/A,,Clear,200,2013-05-15 02:15:00
9:35 PM,71.6,48.2,43,30.11,9.0,SSW,5.8,-,N/A,,Clear,210,2013-05-15 02:35:00
9:55 PM,69.8,50.0,49,30.11,10.0,SSW,3.5,-,N/A,,Clear,210,2013-05-15 02:55:00
10:15 PM,68.0,50.0,52,30.11,10.0,SSW,4.6,-,N/A,,Clear,210,2013-05-15 03:15:00
10:35 PM,68.0,50.0,52,30.12,10.0,Calm,Calm,-,N/A,,Clear,0,2013-05-15 03:35:00
11:15 PM,64.4,50.0,59,30.11,10.0,Calm,Calm,-,N/A,,Clear,0,2013-05-15 04:15:00
11:35 PM,64.4,50.0,59,30.11,10.0,SSW,4.6,-,N/A,,Clear,210,2013-05-15 04:35:00
11:55 PM,66.2,50.0,56,30.11,10.0,SW,6.9,-,N/A,,Clear,220,2013-05-15 04:55:00